Flag for Nepal Weather past 2 weeks in Pokhara, Nepal

Now
70 °F

Fog.


Feels Like: 70 °F
Forecast: 64 / 83 °F
Wind: No wind

Location: Kathmandu Airport

Current Time: Jul 8, 2015 at 6:21:20 AM

Latest Report: Jul 8, 2015 at 5:35 AM


Visibility: 3 mi

Pressure: 29.77 "Hg (26.98 "Hg at 847m altitude)

Humidity: 94%

Dew point: 68 °F

Location of PokharaLocation

Historic Weather in Pokhara — Graph

°F

Pokhara temperature yesterday

Maximum temperature yesterday: 79 °F (at 10:35 AM)
Minimum temperature yesterday: 68 °F (at 12:35 AM)
Average temperature yesterday: 72 °F

Past Weeks' High & Low Weather Summary

 TemperatureHumidityPressure
High86 °F (Jun 30, 3:35 PM)100% (Jun 25, 6:35 AM)30.01 "Hg (Jun 25, 6:35 AM)
Low68 °F (Jun 25, 6:35 AM)58% (Jun 29, 12:35 PM)29.62 "Hg (Jun 23, 3:35 PM)
Average74 °F85%29.79 "Hg
* Reported Jun 23 4:35 AM — Jul 8 4:35 AM, Pokhara, Weather by CustomWeather, © 2015

Note: Actual official high and low records may vary slightly from our data, if they occured in-between our weather recording intervals... More about our weather records

Advertising

Pokhara weather history for previous 24 hours

 ConditionsComfort  
Time TempWeatherWind HumidityBarometerVisibility
4:35 AM
Wed, Jul 8
70 °FMostly cloudy.No wind94%29.74 "Hg4 mi
3:35 AM70 °FPartly cloudy.No wind94%29.77 "Hg4 mi
2:35 AM70 °FPartly cloudy.No wind94%29.77 "Hg4 mi
1:35 AM70 °FMostly cloudy.No wind94%29.80 "Hg4 mi
12:35 AM70 °FLight rain. Mostly cloudy.No wind94%29.83 "Hg4 mi
11:35 PM
Tue, Jul 7
70 °FMostly cloudy.No wind100%29.83 "Hg4 mi
10:35 PM70 °FLight rain. Mostly cloudy.No wind94%29.83 "Hg4 mi
9:35 PM70 °FLight rain. Mostly cloudy.No wind94%29.83 "Hg4 mi
8:35 PM72 °FLight rain. Mostly cloudy.No wind94%29.83 "Hg4 mi
7:35 PM70 °FMore clouds than sun.5 mph94%29.80 "Hg4 mi
6:35 PM70 °FRain. More clouds than sun.3 mph94%29.74 "Hg3 mi
5:35 PM72 °FRain. Broken clouds.10 mph94%29.74 "Hg2 mi
4:35 PM75 °FRain. Broken clouds.10 mph83%29.71 "Hg4 mi
3:35 PM79 °FBroken clouds.3 mph74%29.71 "Hg4 mi
2:35 PM75 °FLight rain. Broken clouds.3 mph89%29.74 "Hg4 mi
1:35 PM73 °FFog.6 mph94%29.80 "Hg3 mi
12:35 PM73 °FBroken clouds.3 mph83%29.80 "Hg4 mi
11:35 AM70 °FRain. Broken clouds.6 mph100%29.83 "Hg3 mi
10:35 AM79 °FFog.2 mph74%29.83 "Hg3 mi
9:35 AM75 °FFog.2 mph83%29.83 "Hg3 mi
8:35 AM73 °FFog.No wind89%29.83 "Hg2 mi
7:35 AM70 °FFog.2 mph94%29.80 "Hg2 mi
6:35 AM70 °FFog.2 mph94%29.80 "Hg2 mi
Weather by CustomWeather, © 2015

See weather overviewHow to use our weather pages